Loisir ou Compétition : Rejoignez un Club de la Fédération

Résultats

GP VILLARD

PLAINE JOUX

FS Hommes

Jury de Compétition

Délégué Technique :
VITTOZ STEPHANE (MB)
D.T. Adjoint :
SUTTER YOHANN (MB)
Dir. Epreuve :
 

Caractéristiques de la Piste

Piste :
Site de Replis
Distance :
5,0 km
Point Haut :
1300 m
Point Bas :
1250 m
Montée Tot. :
 
Montée Max. :
 
Homologation :
 

Pénalité Appliquée :
240.0000
Coefficient :
 

Catégorie :
U14
Style :
C
Clt Dos Clt/Cat Code An Nom Prénom Com Club Temps Ecart Points
Classés
1 161 1/U14 FFS2670259 2004 BLANCHARD TITOUAN MB CS LA CLUSAZ 15:39.3 00:00.0 240.00
2 158 2/U14 FFS2661783 2004 JOUANNAUD LIONEL MB CS CHAMONIX 15:58.5 00:19.2 256.35
3 148 3/U14 FFS2686663 2005 PERRILLAT BOITEUX ANTHONY MB SC GD BORNAN 16:02.3 00:23.0 259.59
4 162 4/U14 FFS2682762 2004 CALANDRY RAPHAEL MB DRAGONS ANNY 16:04.0 00:24.7 261.04
5 164 5/U14 FFS2650224 2004 LAUSENAZ ANTHONY MB CHABLAIS NOR 16:09.8 00:30.5 265.98
6 152 6/U14 FFS2682010 2004 BONAVENT THOMAS MB SC D'AGY 16:10.2 00:30.9 266.32
7 163 7/U14 FFS2681664 2004 PERROUD DORIAN MB SCNP ROCHOIS 16:23.4 00:44.1 277.56
8 157 8/U14 FFS2681320 2004 LEBARD JAN MB DRAGONS ANNY 16:23.5 00:44.2 277.65
9 139 9/U14 FFS2682024 2004 MILLAN SYLVAIN MB VILLARD/BOEG 16:27.7 00:48.4 281.22
10 151 10/U14 FFS2662962 2004 PANISSET SIMON MB SC GD BORNAN 16:30.0 00:50.7 283.18
11 143 11/U14 FFS2686681 2005 DELOCHE LINO MB SC GD BORNAN 16:33.3 00:54.0 285.99
12 136 12/U14 FFS2680962 2004 PERRILLAT COLLOMB MATHEO MB SC GD BORNAN 16:43.7 01:04.4 294.85
13 155 13/U14 FFS2686938 2005 VALLEIX JORIS MB SCNP ROCHOIS 16:48.6 01:09.3 299.02
14 160 14/U14 FFS2670262 2004 MICHEL JULIEN MB CS LA CLUSAZ 16:51.9 01:12.6 301.83
15 140 15/U14 FFS2681663 2004 LEVET GASTON MB SCNP ROCHOIS 16:52.2 01:12.9 302.09
16 146 16/U14 FFS2648791 2004 FORTINA ADAM MB SC CONTAMINE 16:54.5 01:15.2 304.05
17 154 17/U14 FFS2664692 2004 GROS MICHELE MB SC CONTAMINE 17:01.8 01:22.5 310.27
18 130 18/U14 FFS2678952 2004 FAVRE BONVIN TITOUAN MB SC GD BORNAN 17:01.9 01:22.6 310.35
19 153 19/U14 FFS2686532 2004 BERGER HUGO MB DRAGONS ANNY 17:05.0 01:25.7 312.99
20 144 20/U14 FFS2686695 2005 PERRILLAT BOTTONET JUDICA MB SC GD BORNAN 17:10.0 01:30.7 317.25
21 149 21/U14 FFS2682178 2004 BIOLLAZ THOMAS MB PRAZ LYS-SOM 17:19.6 01:40.3 325.43
22 135 22/U14 FFS2681260 2004 BOEHLER DORIAN MB LES GETS S.C 17:22.6 01:43.3 327.98
23 129 23/U14 FFS2686672 2005 BROCHANT LUCAS MB SC GD BORNAN 17:27.0 01:47.7 331.73
24 156 24/U14 FFS2670261 2004 FAVRE REGUILLON MATHELYO MB CS LA CLUSAZ 17:27.5 01:48.2 332.15
25 123 25/U14 FFS2684607 2004 ADAM NINO MB CS CHAMONIX 17:34.5 01:55.2 338.12
26 132 26/U14 FFS2668129 2004 BAUD CESAR MB LES GETS S.C 17:36.1 01:56.8 339.48
27 138 27/U14 FFS2681588 2004 GENTET RONAN MB CS ARGENTIER 17:43.2 02:03.9 345.53
28 125 28/U14 FFS2686793 2005 MARIE ADELIN MB SC D'AGY 17:44.8 02:05.5 346.89
29 159 29/U14 FFS2691994 2004 BELLE CLOT SAMUEL MB SCNP ROCHOIS 17:45.3 02:06.0 347.31
30 142 30/U14 FFS2686939 2005 GRENARD MAX MB SCNP ROCHOIS 17:45.9 02:06.6 347.82
31 134 31/U14 FFS2660349 2004 DELOCHE TRISTAN MB SC GD BORNAN 17:49.1 02:09.8 350.55
32 145 32/U14 FFS2681277 2004 PETILLEON TAO MB PRAZ LYS-SOM 17:50.3 02:11.0 351.57
33 141 33/U14 FFS2686242 2005 VIGUIER QUENTIN MB CS LA CLUSAZ 17:51.2 02:11.9 352.34
34 116 34/U14 FFS2666324 2005 FAVRE FELIX KILLIAN MB SC GD BORNAN 17:57.3 02:18.0 357.53
35 111 35/U14 FFS2686538 2005 JOMIER LOIS MB DRAGONS ANNY 17:59.4 02:20.1 359.32
36 137 36/U14 FFS2668666 2004 DOUKARI ALEXIS MB SALLANCHES 18:07.0 02:27.7 365.80
37 147 37/U14 FFS2671565 2005 COLOMBAN ALEXIS MB SCNP ROCHOIS 18:11.1 02:31.8 369.29
38 133 38/U14 FFS2663262 2004 LANVERS MATTEO MB VILLARD/BOEG 18:12.1 02:32.8 370.14
39 127 39/U14 FFS2673756 2005 PEYRON ARTHUR MB CS CHAMONIX 18:12.8 02:33.5 370.74
40 120 40/U14 FFS2681002 2004 GONIN LEANDRE MB SC GD BORNAN 18:16.7 02:37.4 374.06
41 103 41/U14 FFS2680344 2005 DELERCE GASPARD MB LES GETS S.C 18:17.3 02:38.0 374.57
42 150 42/U14 FFS2676910 2005 CLAVEL SIMON MB CS LA CLUSAZ 18:23.8 02:44.5 380.10
43 118 43/U14 FFS2686282 2004 DIERSTEIN ARTHUR MB CNG 18:24.1 02:44.8 380.36
44 126 44/U14 FFS2686260 2005 BOSSUT AUGUSTIN MB PRAZ LYS-SOM 18:32.8 02:53.5 387.77
45 117 45/U14 FFS2690844 2005 HAEBERLI ARTHUR MB CS LA CLUSAZ 18:34.0 02:54.7 388.79
46 131 46/U14 FFS2687034 2005 FIVEL DEMORET HUGO MB SC CONTAMINE 18:45.0 03:05.7 398.16
47 128 47/U14 FFS2686539 2005 LACROIX MATTHIAS MB DRAGONS ANNY 18:49.3 03:10.0 401.82
48 114 48/U14 FFS2686543 2005 ROMERI NATHAN MB DRAGONS ANNY 18:58.2 03:18.9 409.40
49 106 49/U14 FFS2681321 2004 BETRIX ALEXIS MB CHABLAIS NOR 19:08.3 03:29.0 418.00
50 94 50/U14 FFS2666956 2004 BLAIZE REMI MB VILLARD/BOEG 19:10.9 03:31.6 420.22
51 124 51/U14 FFS2686940 2005 LEVET PROSPER MB SCNP ROCHOIS 19:17.9 03:38.6 426.18
52 84 52/U14 FFS2682466 2004 THEVENOD JULES MB VILLARD/BOEG 19:18.6 03:39.3 426.78
53 107 53/U14 FFS2687035 2005 CORNU MATHIEU MB CS CHAMONIX 19:22.9 03:43.6 430.44
54 98 54/U14 FFS2686262 2005 LESSERTISSEUX VALENTIN MB PRAZ LYS-SOM 19:24.8 03:45.5 432.06
55 92 55/U14 FFS2681813 2004 ANGRAND LOUIS MB VILLARD/BOEG 19:31.0 03:51.7 437.34
56 89 56/U14 FFS2686905 2005 MIR EMARATI MILO MB CS CHAMONIX 19:32.9 03:53.6 438.96
57 104 57/U14 FFS2692552 2005 PETROD BASTIEN MB CNG 19:33.1 03:53.8 439.13
58 119 58/U14 FFS2674370 2004 PINEL THIBAULT MB SALLANCHES 19:33.3 03:54.0 439.30
59 122 59/U14 FFS2663071 2004 BEGUEX LOUIS MB VILLARD/BOEG 19:35.2 03:55.9 440.92
60 109 60/U14 FFS2669366 2004 ROBERT ELOUAN MB SALLANCHES 19:40.2 04:00.9 445.17
61 96 61/U14 FFS2690183 2004 BILDGEN TIMOTHE MB VILLARD/BOEG 19:43.6 04:04.3 448.07
62 112 62/U14 FFS2688678 2005 REPELLIN CHARLES MB VILLARD/BOEG 19:47.2 04:07.9 451.14
63 93 63/U14 FFS2690481 2005 THABUIS BASILE MB VILLARD/BOEG 19:49.5 04:10.2 453.09
64 101 64/U14 FFS2681804 2004 STIERLI LOIC MB VILLARD/BOEG 19:52.2 04:12.9 455.39
65 105 65/U14 FFS2686259 2005 DUCREY BRICE MB PRAZ LYS-SOM 19:57.8 04:18.5 460.16
66 82 66/U14 FFS2663405 2004 JOCHUM ADRIEN MB LES GETS S.C 20:10.8 04:31.5 471.24
67 115 67/U14 FFS2681169 2004 JOSSERAND ANTOINE MB CS LA CLUSAZ 20:11.7 04:32.4 472.00
68 100 68/U14 FFS2682026 2004 FOURREAUX EVANN MB VILLARD/BOEG 20:14.6 04:35.3 474.47
69 99 69/U14 FFS2688043 2005 MAGNIEZ OSCAR MB DRAGONS ANNY 20:18.7 04:39.4 477.96
70 95 70/U14 FFS2681304 2005 PERSONNAZ LOAN MB DRAGONS ANNY 20:24.1 04:44.8 482.56
71 97 71/U14 FFS2687102 2005 SYLVESTRE BARON PAUL MB SCNP ROCHOIS 20:29.8 04:50.5 487.42
72 86 72/U14 FFS2692551 2004 PEIGNE VICTOR MB CNG 20:35.2 04:55.9 492.02
73 121 73/U14 FFS2688658 2005 COLLOMB EMILIO MB VILLARD/BOEG 20:42.9 05:03.6 498.58
74 90 74/U14 FFS2682725 2004 COINTEPAS COLIN MB CNG 20:51.2 05:11.9 505.64
75 88 75/U14 FFS2686801 2005 GARBY KEVIN MB SC D'AGY 20:51.3 05:12.0 505.73
76 102 76/U14 FFS2687103 2005 MOREAU SIMEON MB SCNP ROCHOIS 20:53.0 05:13.7 507.18
77 85 77/U14 FFS2692062 2005 AFLALO CYPRIEN MB CHABLAIS NOR 20:55.1 05:15.8 508.97
78 108 78/U14 FFS2687455 2005 FOUCAULT LECERF MAE MB SCNP ROCHOIS 21:09.8 05:30.5 521.49
79 91 79/U14 FFS2692554 2005 ZAVARISE NOAH MB CNG 21:33.0 05:53.7 541.25
80 113 80/U14 FFS2660905 2004 FAVERJON VICTOR MB VILLARD/BOEG 21:33.7 05:54.4 541.84
81 81 81/U14 FFS2686853 2004 PIERS NOE MB CNG 21:50.7 06:11.4 556.32
82 87 82/U14 FFS2688657 2005 BARD ILANN MB VILLARD/BOEG 22:19.2 06:39.9 580.59
83 83 83/U14 FFS2687856 2005 VEISY KILLIAN MB EN HT GIFFRE 25:03.4 09:24.1 720.44
Non traités
80 FFS2686914 2005 LESCOUFF RONAN MB CS CHAMONIX
110 FFS2683536 2004 JACQUEMARD SWAN MB CS ARGENTIER